Location: La Brionne
(46.1728°N, 1.7849°E)
Time: 19:24:44
(UTC+00:00)

USA 267 - Pass Details

Date: 31 October 2021
Orbit: 1101 x 1107 km, 123.0° (Epoch: 27 November)

Event Time Altitude Azimuth Distance (km) Brightness Sun altitude
Exits shadow 19:55:47 35° 208° (SSW) 1,701 4.2 -34.2°
Maximum altitude 19:56:56 37° 230° (SW) 1,632 4.3 -34.4°
Drops below altitude 10° 20:02:56 10° 296° (WNW) 2,962 6.3 -35.4°
Sets 20:05:39 0° 305° (NW) 3,923 7.1 -35.8°
